Orbital Elements at Epoch 2459200.5 (2020-Dec-17.0) TDB
Reference: JPL 14 (heliocentric ecliptic J2000)
Element | Value | Uncertainty (1-sigma) | Units |
e | .2337715618827235 | 5.3034e-08 | |
a | 3.148262904121164 | 2.1527e-08 | au |
q | 2.41228856780732 | 1.6711e-07 | au |
i | 8.856168737901333 | 5.5664e-06 | deg |
node | 289.7551669115491 | 3.7871e-05 | deg |
peri | 123.3706830589716 | 4.079e-05 | deg |
M | 191.7651155227881 | 1.3579e-05 | deg |
tp | 2460153.995106610002 (2023-Jul-28.49510661) | 8.1408e-05 | TDB |
period | 2040.351140289792 5.59 | 2.0927e-05 5.73e-08 | d yr |
n | .1764402180052543 | 1.8097e-09 | deg/d |
Q | 3.884237240435007 | 2.656e-08 | au |
|
| | Orbit Determination Parameters
Additional Information
|